Probability
15 16 16 16 14 10 6 3 2 1 0 0 0 0 0 0 0 0 0 0 0 0 0 0 0 0 0 0 0 0 0 0 1 2 2 1 0 0 0 0 0 0 0
18 17 17 16 14 11 6 3 1 0 0 0 0 0 0 0 0 0 0 0 0 0 0 0 0 0 0 0 0 0 0 0 0 1 1 1 0 0 0 0 0 0 0
19 18 16 16 15 11 6 3 1 0 0 0 0 0 0 0 0 0 0 0 0 0 0 0 0 0 0 0 0 0 0 0 0 0 0 0 0 0 0 0 0 0 0
18 16 16 16 15 12 7 4 1 1 0 0 0 0 0 0 0 0 0 0 0 0 0 0 0 0 0 0 0 0 0 0 0 0 0 0 0 0 0 0 0 0 0
17 16 17 19 18 15 10 5 2 2 1 0 0 0 0 0 0 0 0 0 0 0 0 0 0 0 0 0 0 0 0 0 0 0 0 0 0 0 0 0 0 0 0
18 17 18 21 22 19 13 7 4 3 2 1 0 0 0 0 0 0 0 0 0 0 0 0 0 0 0 0 0 0 0 0 0 0 0 0 0 1 1 1 0 0 0
21 18 18 22 24 21 16 11 8 5 3 2 1 0 0 0 0 0 0 0 0 0 0 0 0 0 0 0 0 0 0 0 0 0 0 0 1 2 2 1 0 0 0
24 21 19 21 24 21 17 14 11 7 4 2 1 0 0 0 0 0 0 0 0 0 0 0 0 0 0 0 0 0 0 0 0 0 0 0 1 2 2 1 0 0 0
25 23 20 20 21 20 17 13 10 7 4 1 0 0 0 0 0 1 0 0 0 0 0 0 0 0 0 0 0 0 0 0 0 0 0 1 2 2 1 0 0 0 0
25 22 18 17 17 17 14 10 7 5 3 1 0 0 0 0 0 0 0 0 0 0 0 0 0 0 0 0 0 0 0 0 0 0 0 1 2 2 1 0 0 0 0
23 19 15 16 18 16 11 6 5 4 3 1 1 0 0 0 0 0 0 0 0 0 0 0 0 0 0 0 1 1 0 0 0 0 0 1 3 2 1 0 0 0 0
22 19 16 18 21 21 14 7 4 4 3 3 2 1 0 0 0 0 0 0 0 0 0 0 0 0 0 0 1 1 0 0 0 0 1 2 3 2 1 0 0 0 0
19 20 20 21 23 24 19 11 5 4 3 3 3 2 0 0 0 0 0 0 0 0 0 0 0 0 0 0 1 1 0 1 1 1 1 2 3 2 1 0 0 0 0
16 18 22 23 24 24 21 14 7 4 3 3 2 1 0 0 0 1 1 0 0 0 0 0 0 0 0 0 0 1 0 1 2 2 1 2 2 1 0 0 0 0 0
13 15 19 22 23 23 21 15 9 5 4 3 1 0 0 0 1 2 2 1 0 0 0 0 0 0 0 0 0 1 1 1 2 2 1 1 1 0 0 0 0 0 0
11 11 13 17 19 21 20 16 10 6 5 4 3 1 0 0 1 2 2 1 0 0 0 0 0 0 1 0 0 1 1 1 1 1 0 0 0 0 0 0 0 0 0
11 10 9 12 14 17 19 16 11 8 6 6 5 4 2 0 0 1 1 1 0 0 0 0 0 0 0 0 0 1 2 2 1 0 0 0 0 0 0 0 0 0 0
10 9 7 7 10 14 16 15 12 10 7 7 7 6 3 1 0 0 0 0 0 0 0 0 0 0 0 0 0 0 1 1 1 0 0 0 0 0 0 0 0 0 0
8 7 6 5 6 11 14 14 12 12 10 8 8 7 4 1 0 0 0 0 0 0 0 0 0 0 0 0 0 0 0 0 0 0 0 0 0 0 0 0 0 0 0
6 6 6 5 5 10 14 14 12 12 12 9 7 7 5 2 0 0 0 0 1 0 0 0 0 0 0 0 0 0 0 0 0 0 0 0 0 0 0 0 0 0 0
7 7 6 6 5 8 13 13 11 11 11 9 7 7 6 3 1 0 0 0 1 1 0 0 0 0 0 0 0 0 0 0 0 0 0 0 0 0 0 0 0 0 0
7 6 6 5 5 7 11 12 10 9 8 7 6 6 6 3 1 0 0 0 0 1 0 0 0 0 0 0 0 0 0 0 0 0 0 0 0 0 0 0 0 0 0
6 5 4 4 5 6 8 10 9 8 6 5 4 4 5 4 2 1 0 0 0 0 0 0 0 0 0 0 0 0 0 0 0 0 0 0 0 0 0 0 0 0 0
4 3 3 4 5 6 7 7 8 7 4 3 3 3 4 3 2 1 0 0 0 0 0 1 1 0 0 0 0 0 0 0 0 0 0 0 0 0 0 0 0 0 0
3 3 3 3 4 5 5 5 5 4 2 1 2 2 2 2 2 1 0 0 0 0 0 1 1 0 0 0 0 0 0 0 0 0 0 0 0 0 0 0 0 0 0
3 3 3 3 4 4 4 4 3 2 2 1 1 1 1 1 1 0 0 0 0 0 0 0 1 0 0 0 0 0 0 0 0 0 0 0 0 0 0 0 0 0 0
Wind_Speed
6 8 9 8 9 9 9 9 9 9 9 9 10 10 11 11 11 11 12 12 12 12 12 12 13 13 13 13 14 14 14 14 14 15 15 14 14 14 14 13 13 10 15
9 9 9 9 9 9 9 9 9 9 9 10 10 10 10 11 11 11 11 11 12 12 12 12 12 12 12 12 12 13 12 12 12 12 12 12 13 14 14 14 13 9 14
10 10 9 9 9 9 9 9 9 9 9 10 10 10 10 10 10 10 10 11 11 11 11 11 11 11 11 11 11 11 10 10 9 8 8 6 8 13 13 13 13 14 14
10 9 9 9 9 9 10 10 9 9 9 9 10 10 10 10 10 10 10 10 10 11 11 10 10 10 10 10 10 9 8 7 6 6 5 6 6 12 12 13 13 13 13
9 9 9 9 9 9 10 9 9 9 9 9 9 9 9 9 9 10 10 10 10 10 10 10 10 10 9 9 9 8 7 6 6 6 6 6 5 10 12 12 12 12 12
8 9 9 9 9 9 9 9 9 8 8 8 8 8 8 8 9 9 9 9 9 9 9 9 9 9 8 8 7 7 5 5 4 4 5 5 4 9 11 11 11 11 11
8 9 9 8 9 9 9 8 8 8 8 8 8 8 7 8 8 8 8 8 8 8 8 8 8 8 8 7 6 6 4 4 3 5 5 5 5 9 10 10 10 10 10
8 8 8 8 8 8 8 8 7 7 7 7 7 7 7 7 8 8 8 7 7 7 8 7 7 7 7 6 5 5 4 4 4 6 5 4 7 9 9 9 9 9 10
7 8 7 6 6 7 7 7 7 6 6 6 6 6 7 7 7 7 7 7 7 7 7 6 6 6 6 5 4 3 4 4 2 3 6 4 7 8 8 8 8 9 9
6 6 6 5 5 5 5 7 6 6 6 6 6 6 6 6 6 6 6 6 6 6 6 5 5 5 5 4 2 2 3 3 2 4 3 4 7 7 7 7 7 8 8
5 5 5 5 4 4 4 5 5 5 5 5 5 5 5 3 4 4 4 5 5 5 5 5 4 4 3 2 1 1 2 0 3 3 3 5 6 6 6 6 6 6 6
4 4 4 4 4 4 3 3 2 3 3 2 3 3 2 2 2 4 4 5 4 4 4 3 3 3 1 1 1 1 1 1 2 2 3 6 5 5 5 5 5 5 5
3 2 3 3 3 3 2 2 2 2 2 2 3 2 2 2 3 3 2 2 2 2 1 2 2 1 1 1 1 1 0 1 1 2 3 5 4 4 4 4 4 4 3
3 2 2 3 3 2 2 2 2 1 1 1 2 2 2 2 2 2 2 2 2 1 1 1 1 1 1 1 2 2 1 1 1 2 3 4 4 4 4 3 3 3 3
2 2 2 2 3 2 2 1 2 1 1 1 1 1 2 2 2 2 2 1 1 1 1 1 1 1 1 1 1 2 2 2 2 2 2 4 3 3 3 3 3 2 2
2 2 2 2 2 2 1 1 1 1 1 1 1 1 1 2 2 2 2 2 1 1 1 1 1 1 1 1 1 1 2 2 2 3 3 3 4 3 2 2 2 1 1
2 2 2 2 1 2 2 1 1 1 1 1 1 1 1 1 2 1 1 1 1 1 1 1 1 1 1 1 1 1 1 1 2 3 3 3 3 3 3 2 2 2 1
2 2 2 2 2 1 2 1 1 1 1 1 1 1 1 1 1 1 1 1 1 1 1 1 1 1 1 1 1 1 1 1 2 2 3 3 3 3 3 3 3 2 2
3 2 2 2 2 1 1 1 1 1 1 1 1 1 1 1 1 1 1 1 1 1 1 1 0 1 1 1 1 1 1 1 2 2 3 3 3 3 3 4 4 3 3
3 3 2 2 2 2 1 1 0 1 1 1 1 1 1 1 1 1 1 1 1 1 1 1 1 1 1 1 1 1 1 2 1 2 3 3 3 3 3 4 3 3 4
3 3 2 2 2 1 1 1 0 0 0 0 0 1 0 1 1 1 1 1 1 1 2 2 1 1 1 1 1 1 2 2 2 2 2 2 3 3 3 4 3 3 3
2 2 2 2 2 2 1 1 1 1 1 1 0 0 1 0 1 1 1 1 1 1 1 2 2 1 1 1 1 1 1 2 2 2 2 2 3 2 3 3 3 3 3
2 2 1 1 2 2 1 0 0 0 0 0 0 0 0 0 1 1 2 1 1 1 2 2 2 2 2 2 1 2 2 3 1 1 3 3 3 2 2 2 3 3 3
3 2 2 1 1 1 1 1 1 1 1 1 1 1 1 0 1 1 1 2 2 1 2 2 2 2 2 2 2 2 2 1 1 1 2 2 3 3 3 2 3 3 4
3 2 1 1 1 1 1 1 2 1 1 1 0 1 1 1 1 1 1 1 2 2 2 2 2 2 2 3 2 2 2 2 2 2 2 2 2 2 2 2 2 2 3
2 2 1 1 1 1 0 0 1 1 1 1 1 1 1 1 1 1 2 2 2 2 2 3 3 3 3 3 3 3 2 2 3 3 3 2 2 2 2 2 2 3 2
Wind_Direction
114 122 121 116 110 107 102 99 96 92 87 83 81 83 83 82 81 81 81 81 78 78 79 81 81 81 81 82 81 80 80 79 78 76 75 76 75 74 72 73 73 70 74
119 125 121 117 113 111 106 100 97 91 89 88 85 85 85 84 85 85 83 81 80 78 78 82 82 82 83 85 85 85 85 85 84 81 78 76 76 76 73 72 75 77 76
116 123 125 118 116 114 109 104 101 94 92 90 87 85 85 85 85 85 84 82 80 78 78 80 82 83 84 86 87 86 85 85 84 79 79 80 77 77 77 77 77 77 77
117 123 125 120 118 116 113 109 105 99 97 94 89 86 86 84 83 84 84 82 81 80 79 81 84 84 84 84 87 87 83 76 68 66 76 75 75 80 80 79 78 78 77
115 121 122 123 121 120 116 113 108 104 101 99 94 91 89 88 85 85 84 83 82 82 81 82 85 86 86 85 84 86 77 61 54 67 76 75 72 83 83 82 81 80 77
113 115 121 121 122 122 118 113 110 106 102 101 99 97 96 93 90 89 86 84 84 82 83 82 83 85 86 86 83 78 68 44 46 76 76 78 76 84 83 83 82 80 78
111 115 125 119 120 122 119 116 112 108 106 104 105 102 101 98 96 96 92 88 87 84 85 86 85 87 87 87 85 69 50 28 76 85 80 76 81 87 85 84 81 79 78
109 117 127 119 118 119 118 114 113 112 112 108 109 108 105 102 101 99 96 93 93 90 86 86 86 89 94 92 78 53 23 30 74 90 88 83 88 89 88 85 83 81 79
104 114 123 133 127 122 122 118 114 111 112 111 108 109 106 103 103 100 98 97 96 95 93 89 89 91 98 96 77 48 20 16 49 83 95 92 94 92 89 88 86 85 83
98 108 122 124 126 132 131 123 118 115 110 108 107 105 103 105 104 101 100 97 98 99 98 96 94 95 99 97 72 28 2 356 80 85 90 101 101 98 96 93 88 87 84
97 107 119 123 122 122 130 123 121 121 113 109 110 110 108 118 118 111 104 99 99 101 103 106 108 107 100 107 102 329 342 18 87 86 91 107 107 101 97 96 92 92 88
106 107 111 119 123 121 124 126 135 129 129 134 129 139 139 125 115 111 110 111 109 106 107 116 119 125 115 154 214 260 271 90 92 100 101 116 116 107 100 97 96 96 93
106 101 108 108 119 123 125 137 137 141 155 159 147 160 136 115 112 111 118 116 121 127 135 144 159 195 193 167 188 213 217 82 94 105 109 119 123 120 113 110 105 98 96
113 95 116 113 113 123 128 139 139 136 154 145 157 149 126 123 124 129 130 147 152 158 150 174 201 216 198 190 201 191 168 133 116 112 122 119 122 125 124 122 115 105 98
107 93 78 111 119 115 121 133 131 130 135 137 147 134 120 132 138 138 145 145 146 148 160 200 225 216 208 214 217 193 176 169 142 130 132 130 124 134 142 141 132 127 118
120 112 80 73 110 112 106 133 137 144 150 146 132 123 122 130 135 143 150 149 161 161 175 205 213 202 216 220 253 211 182 172 156 146 145 146 145 150 168 172 165 151 146
113 102 89 83 83 121 124 148 127 134 132 133 136 134 134 129 144 146 142 156 169 163 178 200 212 179 227 239 244 249 196 178 161 160 152 162 162 166 181 180 179 183 199
121 105 92 56 50 101 115 122 130 150 134 132 128 145 171 128 135 144 147 164 156 146 163 187 183 182 207 218 239 267 242 203 182 168 160 165 163 170 182 190 204 210 220
133 122 102 81 48 45 91 103 148 157 138 138 125 130 114 101 116 141 155 170 154 148 182 221 204 180 200 226 235 233 245 228 199 183 178 173 167 167 169 191 205 210 217
124 118 104 96 65 41 65 57 46 98 121 130 142 140 127 146 129 103 134 161 156 167 204 208 227 217 197 200 252 263 248 227 210 203 196 175 171 179 173 180 186 205 211
118 113 112 100 95 81 73 102 105 183 132 117 150 147 146 144 137 149 173 162 154 192 207 200 215 229 217 164 115 303 282 239 214 217 206 184 184 189 188 184 181 178 196
115 119 127 113 106 89 87 150 184 233 206 185 211 200 203 177 174 181 163 194 185 183 220 214 205 216 235 198 165 170 267 281 255 228 210 206 202 196 199 198 186 181 179
103 111 117 110 104 94 57 125 110 10 327 126 246 194 224 221 214 200 183 187 208 199 211 229 216 209 228 237 203 182 194 226 270 247 225 216 206 203 203 198 197 189 179
111 93 66 67 94 109 104 164 164 202 228 239 220 220 243 258 252 228 197 191 207 220 221 229 231 227 219 234 245 241 231 186 190 253 264 233 216 213 212 217 208 195 183
113 104 85 66 57 87 117 191 186 218 233 244 280 244 234 239 251 262 223 207 211 219 223 233 234 227 227 230 227 237 256 266 240 202 243 253 250 233 215 215 210 201 190
114 117 127 114 99 80 92 220 209 227 222 204 275 262 246 246 250 270 260 230 225 224 220 229 231 228 234 236 234 225 218 223 225 214 222 232 246 247 230 222 217 210 198